[[{"header":{"parameterUnit":"m.s-1","parameterCategory":1,"la1":30.2991,"la2":30.254,"lo1":-89.0895,"lo2":-89.0444,"dy":0.0017,"dx":0.0017,"nx":28,"ny":28,"refTime":"2023-10-17T09:00:00:Z","depth":0,"parameterNumber":2,"parameterNumberName":"U-component_of_WINDS"},"data":[0,0,0,0,0,0,0,0,0,0,0,0,0,0,0,0,0,0,0,0,0,0,0,0,0,0,0,0,0,0,0,0,0,0,0,0,0,0,0,0,0,0,0,0,0,0,0,0,0,0,0,0,0,0,0,0,0,0,-0.3816,-0.3818,0,-0.3962,-0.3964,-0.3966,-0.4082,-0.4083,-0.4084,-0.4085,-0.4228,-0.4231,-0.4234,0,0,0,0,0,0,0,0,0,0,0,0,0,-0.3632,-0.3634,-0.3816,-0.3818,-0.382,-0.3962,-0.3964,-0.3966,-0.4082,-0.4083,-0.4085,-0.4086,-0.4228,-0.4231,-0.4234,0,0,0,0,0,0,0,0,0,0,0,0,0,-0.3738,-0.3635,-0.3816,-0.3895,-0.3904,-0.3962,-0.3964,-0.3967,-0.4081,-0.4083,-0.4085,-0.4087,-0.4227,-0.423,-0.4234,-0.4224,0,0,-0.4247,-0.4249,0,0,0,0,0,0,0,0,-0.3732,-0.3744,-0.3881,-0.389,-0.3899,-0.4006,-0.3952,-0.4053,-0.4081,-0.4014,-0.4086,-0.4088,-0.4153,-0.4163,-0.4186,-0.4231,-0.4237,-0.4247,-0.425,-0.4251,-0.4253,0,0,0,0,0,0,0,-0.3724,-0.3739,-0.3874,-0.3883,-0.3894,-0.3921,-0.3938,-0.3971,-0.4071,-0.402,-0.4029,-0.4045,-0.4158,-0.4182,-0.419,-0.4239,-0.4247,-0.4251,-0.4253,-0.4255,-0.428,-0.4279,0,0,0,0,0,0,-0.3705,-0.3732,-0.3869,-0.3878,-0.3818,-0.3923,-0.3942,-0.397,-0.4071,-0.4088,-0.4043,-0.4049,-0.4174,-0.4185,-0.4196,-0.4189,-0.4251,-0.4255,-0.4258,-0.4282,-0.428,-0.4278,0,0,0,0,0,0,-0.3701,-0.3716,-0.3863,-0.3808,-0.3828,-0.3924,-0.3954,-0.3972,-0.3996,-0.4089,-0.4107,-0.405,-0.4176,-0.419,-0.4216,-0.4195,-0.4257,-0.4261,-0.4284,-0.4281,-0.4279,-0.4175,0,0,0,0,0,0,-0.3695,-0.3714,-0.3713,-0.3807,-0.3831,-0.3883,-0.3953,-0.3973,-0.4004,-0.4013,-0.41,-0.4116,-0.4178,-0.4209,-0.422,-0.4202,-0.4264,-0.4286,-0.4283,-0.428,-0.418,-0.4169,-0.4159,0,0,0,0,0,-0.3688,-0.3676,-0.3712,-0.3728,-0.3831,-0.3881,-0.3895,-0.3969,-0.4001,-0.3999,-0.4059,-0.4113,-0.4196,-0.4211,-0.4224,-0.4207,-0.4288,-0.4284,-0.428,-0.4185,-0.4171,-0.4159,0,0,0,0,0,0,-0.3575,-0.369,-0.3731,-0.375,-0.3805,-0.3901,-0.3901,-0.3952,-0.3998,-0.4005,-0.4093,-0.4112,-0.4128,-0.4171,-0.4185,-0.4201,-0.4249,-0.4247,-0.4172,-0.416,-0.4149,-0.4137,-0.4267,0,0,0,0,0,-0.3552,-0.3586,-0.3684,-0.3691,-0.3717,-0.3803,-0.3828,-0.3881,-0.3941,-0.3964,-0.4026,-0.408,-0.4119,-0.4142,-0.4183,-0.4188,-0.4207,-0.4182,-0.4172,-0.4162,-0.4159,-0.4163,-0.4152,-0.4265,-0.4265,-0.4265,0,0,-0.3505,-0.3573,-0.3588,-0.367,-0.3719,-0.3749,-0.3822,-0.3851,-0.3874,-0.3968,-0.3997,-0.4044,-0.411,-0.4125,-0.4135,-0.4161,-0.4133,-0.4157,-0.4149,-0.4151,-0.4158,-0.4147,-0.4137,-0.4262,-0.4263,-0.4263,0,0,-0.3435,-0.349,-0.3501,-0.355,-0.3624,-0.3682,-0.3684,-0.3773,-0.3808,-0.3839,-0.391,-0.3937,-0.4002,-0.4046,-0.4077,-0.4024,-0.4074,-0.4035,-0.3977,-0.398,-0.3971,-0.3964,-0.3942,-0.3934,-0.4032,-0.4031,-0.4031,0,-0.3366,-0.3417,-0.35,-0.3525,-0.3558,-0.3647,-0.3657,-0.37,-0.3782,-0.3802,-0.3831,-0.3914,-0.3965,-0.3991,-0.3978,-0.4001,-0.4004,-0.4024,-0.3966,-0.396,-0.3954,-0.3934,-0.3926,-0.4026,-0.4026,-0.4027,-0.4028,0,-0.3328,-0.3361,-0.3361,-0.3441,-0.3474,-0.3491,-0.3575,-0.3598,-0.3648,-0.3702,-0.3731,-0.3796,-0.3851,-0.3861,-0.391,-0.3893,-0.3907,-0.395,-0.3999,-0.3936,-0.3919,-0.3912,-0.4018,-0.402,-0.4022,-0.4023,0,0,-0.3188,-0.3314,-0.3312,-0.3349,-0.3438,-0.3464,-0.3485,-0.3541,-0.3558,-0.3612,-0.363,-0.3683,-0.3724,-0.3758,-0.3813,-0.3815,-0.3766,-0.3858,-0.3861,-0.3836,-0.3749,-0.3714,-0.3704,-0.3802,-0.38,-0.38,-0.3743,0,-0.3129,-0.3174,-0.3249,-0.3268,-0.3298,-0.3384,-0.3402,-0.3457,-0.3508,-0.354,-0.3597,-0.3632,-0.3684,-0.3705,-0.3712,-0.377,-0.3749,-0.3776,-0.3816,-0.3816,-0.3794,-0.3696,-0.366,-0.3603,-0.3737,-0.3736,-0.3735,0,-0.3067,-0.3118,-0.3139,-0.3226,-0.3242,-0.3256,-0.3313,-0.3343,-0.3407,-0.3444,-0.3483,-0.3543,-0.3567,-0.3614,-0.3647,-0.3664,-0.3685,-0.3716,-0.3716,-0.372,-0.3769,-0.3695,-0.3587,-0.3577,-0.3726,-0.3727,-0.3728,0,-0.2959,-0.3033,-0.3056,-0.3085,-0.3187,-0.3194,-0.3237,-0.3303,-0.3331,-0.338,-0.3399,-0.3449,-0.3476,-0.3513,-0.3584,-0.3612,-0.3608,-0.3661,-0.3637,-0.3634,-0.3629,-0.3628,-0.352,-0.3647,-0.3648,-0.3648,-0.3648,0,-0.2884,-0.2893,-0.3009,-0.3022,-0.3034,-0.3121,-0.313,-0.318,-0.3238,-0.3261,-0.3339,-0.3358,-0.3452,-0.3482,-0.3538,-0.3555,-0.3567,-0.3596,-0.361,-0.3587,-0.3583,-0.36,-0.3604,-0.3646,-0.3646,-0.3646,-0.3647,0,-0.2764,-0.2843,-0.2872,-0.2967,-0.2991,-0.2995,-0.3076,-0.3091,-0.3148,-0.3175,-0.3187,-0.3275,-0.3314,-0.3389,-0.3449,-0.3487,-0.349,-0.3517,-0.3469,-0.3477,-0.3447,-0.3448,-0.3344,-0.3333,-0.3469,-0.3468,-0.3467,0,-0.271,-0.272,-0.2816,-0.2838,-0.2878,-0.2912,-0.2942,-0.3027,-0.3054,-0.3128,-0.3133,-0.3179,-0.322,-0.3278,-0.3345,-0.3391,-0.3418,-0.3379,-0.3425,-0.3401,-0.3414,-0.3411,-0.3411,-0.3367,-0.3365,-0.3363,-0.3362,0,-0.2604,-0.2643,-0.2684,-0.2738,-0.2772,-0.2818,-0.2868,-0.2881,-0.2977,-0.3004,-0.3046,-0.3078,-0.314,-0.3183,-0.3239,-0.328,-0.3335,-0.3347,-0.3344,-0.3319,-0.3289,-0.3302,-0.3437,-0.3348,-0.335,-0.3351,-0.3352,-0.3352,-0.2514,-0.2526,-0.2595,-0.2638,-0.2685,-0.273,-0.2749,-0.2809,-0.2846,-0.2904,-0.2952,-0.2989,-0.3052,-0.3133,-0.3171,-0.32,-0.3227,-0.3222,-0.322,-0.3217,-0.3206,-0.3287,-0.3211,-0.3211,-0.3212,-0.3212,-0.3213,0,-0.2409,-0.2459,-0.2498,-0.2566,-0.2599,-0.2652,-0.271,-0.2733,-0.2766,-0.2821,-0.286,-0.2907,-0.295,-0.3022,-0.307,-0.3079,-0.3105,-0.3088,-0.3087,-0.3095,-0.3181,-0.3178,-0.3066,-0.3066,-0.3066,-0.3066,-0.3066,-0.3066,-0.2359,-0.2381,-0.2427,-0.2473,-0.2522,-0.2561,-0.2589,-0.263,-0.2675,-0.2724,-0.2761,-0.2809,-0.287,-0.2923,-0.2964,-0.2984,-0.2996,-0.297,-0.2997,-0.3075,-0.3089,-0.3102,-0.31,-0.2973,-0.2973,-0.2909,-0.2908,-0.2908]},{"header":{"parameterUnit":"m.s-1","parameterCategory":1,"la1":30.2991,"la2":30.254,"lo1":-89.0895,"lo2":-89.0444,"dy":0.0017,"dx":0.0017,"nx":28,"ny":28,"refTime":"2023-10-17T09:00:00:Z","depth":0,"parameterNumber":3,"parameterNumberName":"V-component_of_WINDS"},"data":[0,0,0,0,0,0,0,0,0,0,0,0,0,0,0,0,0,0,0,0,0,0,0,0,0,0,0,0,0,0,0,0,0,0,0,0,0,0,0,0,0,0,0,0,0,0,0,0,0,0,0,0,0,0,0,0,0,0,-0.6235,-0.6235,0,-0.6277,-0.6278,-0.6278,-0.6314,-0.6314,-0.6314,-0.6315,-0.6361,-0.6361,-0.6362,0,0,0,0,0,0,0,0,0,0,0,0,0,-0.6186,-0.6186,-0.6235,-0.6235,-0.6236,-0.6277,-0.6278,-0.6278,-0.6314,-0.6314,-0.6315,-0.6315,-0.636,-0.6361,-0.6362,0,0,0,0,0,0,0,0,0,0,0,0,0,-0.6216,-0.6187,-0.6235,-0.6258,-0.6261,-0.6277,-0.6278,-0.6278,-0.6314,-0.6314,-0.6315,-0.6315,-0.636,-0.6361,-0.6363,-0.6359,0,0,-0.6367,-0.6367,0,0,0,0,0,0,0,0,-0.6214,-0.6217,-0.6254,-0.6257,-0.626,-0.6291,-0.6277,-0.6306,-0.6313,-0.6294,-0.6315,-0.6315,-0.6337,-0.634,-0.6347,-0.6362,-0.6364,-0.6367,-0.6367,-0.6368,-0.6368,0,0,0,0,0,0,0,-0.6212,-0.6216,-0.6252,-0.6255,-0.6258,-0.6267,-0.6272,-0.6283,-0.6312,-0.6295,-0.6298,-0.6302,-0.6339,-0.6346,-0.6348,-0.6364,-0.6367,-0.6368,-0.6369,-0.6369,-0.6378,-0.6377,0,0,0,0,0,0,-0.6206,-0.6214,-0.625,-0.6253,-0.6238,-0.6268,-0.6273,-0.628,-0.6312,-0.6317,-0.6302,-0.6304,-0.6343,-0.6347,-0.635,-0.6348,-0.6368,-0.6369,-0.637,-0.6378,-0.6377,-0.6377,0,0,0,0,0,0,-0.6205,-0.6209,-0.6249,-0.6234,-0.624,-0.6268,-0.6276,-0.6281,-0.6288,-0.6317,-0.6322,-0.6304,-0.6344,-0.6348,-0.6357,-0.635,-0.637,-0.6371,-0.6379,-0.6378,-0.6377,-0.6343,0,0,0,0,0,0,-0.6203,-0.6208,-0.6207,-0.6234,-0.624,-0.6253,-0.6275,-0.6281,-0.629,-0.6293,-0.632,-0.6325,-0.6345,-0.6354,-0.6358,-0.6352,-0.6372,-0.6379,-0.6378,-0.6377,-0.6345,-0.6341,-0.6338,0,0,0,0,0,-0.6201,-0.6196,-0.6206,-0.6211,-0.6239,-0.6253,-0.6257,-0.6279,-0.6289,-0.6288,-0.6307,-0.6324,-0.635,-0.6355,-0.6359,-0.6354,-0.638,-0.6379,-0.6377,-0.6347,-0.6342,-0.6338,0,0,0,0,0,0,-0.6169,-0.62,-0.6212,-0.6215,-0.6231,-0.6259,-0.6258,-0.6274,-0.6288,-0.629,-0.6318,-0.6323,-0.6328,-0.6342,-0.6347,-0.6352,-0.6367,-0.6367,-0.6343,-0.6338,-0.6335,-0.6331,-0.6373,0,0,0,0,0,-0.6162,-0.617,-0.6197,-0.6198,-0.6205,-0.623,-0.6237,-0.6253,-0.627,-0.6277,-0.6296,-0.6314,-0.6326,-0.6333,-0.6346,-0.6348,-0.6354,-0.6346,-0.6342,-0.6339,-0.6339,-0.634,-0.6336,-0.6373,-0.6373,-0.6373,0,0,-0.6148,-0.6166,-0.617,-0.6191,-0.6205,-0.6213,-0.6236,-0.6243,-0.6249,-0.6279,-0.6287,-0.6302,-0.6323,-0.6327,-0.633,-0.6339,-0.633,-0.6338,-0.6335,-0.6336,-0.6338,-0.6335,-0.6332,-0.6372,-0.6372,-0.6372,0,0,-0.6126,-0.6141,-0.6142,-0.6156,-0.6176,-0.6193,-0.6193,-0.6219,-0.6229,-0.6238,-0.626,-0.6268,-0.6288,-0.6302,-0.6312,-0.6295,-0.6311,-0.6298,-0.628,-0.6281,-0.6278,-0.6276,-0.6269,-0.6266,-0.6297,-0.6297,-0.6297,0,-0.6106,-0.6118,-0.6142,-0.6147,-0.6156,-0.6182,-0.6184,-0.6196,-0.622,-0.6226,-0.6235,-0.626,-0.6277,-0.6284,-0.628,-0.6287,-0.6288,-0.6295,-0.6276,-0.6274,-0.6272,-0.6266,-0.6263,-0.6295,-0.6296,-0.6296,-0.6296,0,-0.6093,-0.6101,-0.61,-0.6121,-0.613,-0.6133,-0.6157,-0.6164,-0.6179,-0.6194,-0.6203,-0.6223,-0.624,-0.6243,-0.6258,-0.6253,-0.6257,-0.6271,-0.6287,-0.6267,-0.6261,-0.6259,-0.6293,-0.6294,-0.6294,-0.6295,0,0,-0.6052,-0.6085,-0.6084,-0.6093,-0.6118,-0.6125,-0.613,-0.6145,-0.615,-0.6166,-0.617,-0.6187,-0.6199,-0.621,-0.6227,-0.6228,-0.6212,-0.6242,-0.6243,-0.6235,-0.6207,-0.6195,-0.6192,-0.6223,-0.6223,-0.6223,-0.6205,0,-0.6033,-0.6043,-0.6063,-0.6067,-0.6074,-0.6099,-0.6103,-0.6119,-0.6134,-0.6143,-0.616,-0.617,-0.6187,-0.6193,-0.6195,-0.6213,-0.6207,-0.6215,-0.6228,-0.6228,-0.6221,-0.619,-0.6178,-0.616,-0.6203,-0.6202,-0.6202,0,-0.6013,-0.6026,-0.6029,-0.6052,-0.6056,-0.6059,-0.6075,-0.6083,-0.6101,-0.6112,-0.6124,-0.6142,-0.6149,-0.6164,-0.6174,-0.618,-0.6186,-0.6196,-0.6196,-0.6197,-0.6213,-0.6189,-0.6155,-0.6152,-0.6199,-0.6199,-0.62,0,-0.5981,-0.6,-0.6004,-0.6012,-0.6039,-0.604,-0.6052,-0.6071,-0.6078,-0.6092,-0.6098,-0.6113,-0.6121,-0.6132,-0.6154,-0.6163,-0.6161,-0.6179,-0.6171,-0.617,-0.6169,-0.6168,-0.6134,-0.6174,-0.6174,-0.6174,-0.6174,0,-0.5958,-0.5959,-0.599,-0.5992,-0.5994,-0.6018,-0.6019,-0.6034,-0.605,-0.6056,-0.6079,-0.6084,-0.6113,-0.6122,-0.614,-0.6145,-0.6149,-0.6158,-0.6162,-0.6155,-0.6154,-0.6159,-0.6161,-0.6174,-0.6174,-0.6174,-0.6174,0,-0.5923,-0.5944,-0.595,-0.5975,-0.5981,-0.5981,-0.6003,-0.6006,-0.6022,-0.603,-0.6033,-0.6058,-0.607,-0.6093,-0.6111,-0.6123,-0.6124,-0.6132,-0.6117,-0.612,-0.611,-0.611,-0.6077,-0.6074,-0.6117,-0.6117,-0.6116,0,-0.5906,-0.5907,-0.5932,-0.5937,-0.5947,-0.5956,-0.5963,-0.5987,-0.5994,-0.6015,-0.6016,-0.6029,-0.604,-0.6057,-0.6078,-0.6092,-0.6101,-0.6088,-0.6103,-0.6095,-0.6099,-0.6099,-0.6099,-0.6084,-0.6084,-0.6083,-0.6083,0,-0.5874,-0.5884,-0.5894,-0.5907,-0.5915,-0.5927,-0.594,-0.5943,-0.597,-0.5977,-0.5988,-0.5997,-0.6015,-0.6027,-0.6044,-0.6057,-0.6074,-0.6078,-0.6077,-0.6069,-0.606,-0.6064,-0.6107,-0.6079,-0.6079,-0.6079,-0.608,-0.608,-0.5847,-0.5849,-0.5866,-0.5876,-0.5888,-0.5899,-0.5903,-0.592,-0.5929,-0.5945,-0.5959,-0.5969,-0.5987,-0.6011,-0.6023,-0.6031,-0.604,-0.6038,-0.6038,-0.6037,-0.6033,-0.6059,-0.6035,-0.6035,-0.6035,-0.6035,-0.6035,0,-0.5816,-0.5828,-0.5836,-0.5853,-0.5861,-0.5876,-0.5891,-0.5896,-0.5904,-0.5919,-0.593,-0.5942,-0.5955,-0.5976,-0.599,-0.5993,-0.6001,-0.5996,-0.5995,-0.5998,-0.6025,-0.6024,-0.5989,-0.5989,-0.5989,-0.5989,-0.5989,-0.5989,-0.58,-0.5803,-0.5815,-0.5824,-0.5837,-0.5846,-0.5853,-0.5864,-0.5875,-0.5888,-0.5898,-0.5911,-0.5929,-0.5945,-0.5956,-0.5963,-0.5966,-0.5958,-0.5967,-0.5992,-0.5996,-0.6,-0.5999,-0.5959,-0.5959,-0.5938,-0.5938,-0.5938]}]]